Simultaneous Nadir Overpasses (SNOs) Predictions

Prediction of SNOs between AQUA and NOAA-19 Satellite Orbit:

Table of predicted SNOs for the next 14.0 days since TLE Epoch: 7/8/2016
Index Date (AQUA) Time (AQUA) Lat,Lon (AQUA) SZA (AQUA ) Date (NOAA-19) Time (NOAA-19) Lat,Lon (NOAA-19) SZA (NOAA-19 ) Distance(km) Time Diff (sec)
1 07/09/2016 23:47:45 80.85, 143.98 60.94 07/09/2016 23:47:59 80.86, 143.99 60.94 0.41 14
2 07/12/2016 04:32:02 80.86, 72.78 61.27 07/12/2016 04:31:02 80.87, 72.77 61.30 0.87 60
3 07/12/2016 05:21:28 -80.86,-119.46 118.75 07/12/2016 05:21:57 -80.86,-119.50 118.76 0.87 29
4 07/14/2016 10:05:45 -80.86, 169.35 118.40 07/14/2016 10:05:00 -80.87, 169.39 118.38 0.89 45
5 07/14/2016 10:55:11 80.85, -22.80 61.58 07/14/2016 10:56:04 80.86, -22.87 61.57 1.53 53
6 07/16/2016 15:39:28 80.86, -94.06 61.97 07/16/2016 15:39:07 80.87, -94.16 62.00 1.98 21
7 07/16/2016 16:28:54 -80.85, 73.77 118.06 07/16/2016 16:30:02 -80.85, 73.85 118.10 1.59 68
8 07/18/2016 21:13:11 -80.86, 2.51 117.64 07/18/2016 21:13:06 -80.87, 2.35 117.61 3.22 5




NCC Satellite Simultaneous Nadir Overpasses (SNOs) Prediction Service
